Zurück zum Katalog

STARLINK-2250

AktivKommunikationVLEO
NORAD 48593·PAYLOAD·🇺🇸 United States

Gestartet May 15, 2021 von Cape Canaveral Space Force Station

Loading…

Nächste Überflüge (nächste 24 Stunden)

TLE

AktuellSource: CelesTrak SupGP

Epoche: Sep 15, 2026, 01:24 UTC

1 48593C 21041AS  26258.05881944  .00047031  00000+0  15122-2 0  2584
2 48593  53.1588 338.6278 0001292  93.6628 225.5274 15.31682136    10

Verfolge STARLINK-2250 in Echtzeit mit AllMySat

Download on the App Store